Regional Weather Roundup
Issued by NWS

Home | Current Version | Previous Version | Text Only | Print | Product List | Glossary Off
Versions: 1 2 3 4 5 6 7 8 9 10 11 12 13 14 15 16 17 18 19 20 21 22 23 24 25 26 27 28 29 30 31 32 33 34 35 36 37 38 39 40 41 42 43 44 45 46 47 48 49 50

247
ASUS44 KJAN 311403
RWRMS

MISSISSIPPI HOURLY WEATHER ROUNDUP
NATIONAL WEATHER SERVICE JACKSON MS
800 AM CST SAT JAN 31 2015

NOTE: "FAIR: INDICATES FEW OR NO CLOUDS BELOW 12,000 FEET WITH NO
SIGNIFICANT WEATHER AND/OR OBSTRUCTIONS TO VISIBILITY.

MSZ001>002-007>008-010>013-018>021-025>028-034>036-311500-
NORTHWEST MISSISSIPPI

CITY           SKY/WX    TMP DP  RH WIND       PRES   REMARKS
CLARKSDALE     FAIR      37  28  70 E6        30.38S WCI  33
CLEVELAND      FAIR      39  29  69 E6        30.37R WCI  34
GREENWOOD      CLOUDY    37  25  61 E3        30.36S
GREENVILLE     CLOUDY    39  29  67 E7        30.36R WCI  34
GRENADA        FAIR      36  30  80 E6        30.38S WCI  31
OLIVE BRANCH   PTSUNNY   34  27  75 CALM      30.38R
OXFORD         FAIR      36  21  55 E5        30.38F WCI  32
TUNICA         CLOUDY    37  28  70 E5        30.38F WCI  34
$$

MSZ003>006-009-014>017-022>024-029>033-037>039-311500-
NORTHEAST MISSISSIPPI

CITY           SKY/WX    TMP DP  RH WIND       PRES   REMARKS
COLUMBUS AFB   CLOUDY    32  29  86 CALM      30.40R
CORINTH        FAIR      32  28  86 CALM      30.39R
GOLDN TRIANGLE PTSUNNY   34  28  80 CALM      30.38R
STARKVILLE     FAIR      34  30  86 CALM      30.39S
TUPELO         CLOUDY    34  27  75 CALM      30.39S
$$

MSZ040-058-311500-
CENTRAL MISSISSIPPI

CITY           SKY/WX    TMP DP  RH WIND       PRES   REMARKS
JACKSON INTL   PTSUNNY   40  26  57 E7        30.33F
JACKSON HAWKNS PTSUNNY   40  25  55 E9        30.33F WCI  34
MERIDIAN KEY   SUNNY     35  28  75 NE6       30.38R WCI  30
MERIDIAN NAS   SUNNY     30  26  85 CALM      30.38R
RAYMOND        FAIR      39  34  81 MISG      30.34S
VICKSBURG      CLOUDY    40  30  67 E7        30.34S
$$

MSZ059>079-311500-
SOUTH MISSISSIPPI

CITY           SKY/WX    TMP DP  RH WIND       PRES   REMARKS
BROOKHAVEN     FAIR      37  30  75 CALM      30.34F
HATTIESBURG    SUNNY     33  30  88 CALM      30.37R
MCCOMB         MOSUNNY   39  27  62 NE5       30.33R
NATCHEZ        MOSUNNY   39  28  65 E6        30.31S WCI  35
PINE BELT      SUNNY     36  27  69 NE6       30.36R WCI  31
$$

MSZ080>082-311500-
COASTAL MISSISSIPPI

CITY           SKY/WX    TMP DP  RH WIND       PRES   REMARKS
BAY ST LOUIS   SUNNY     39  27  60 NE6       30.34R WCI  35
BILOXI         SUNNY     39  30  71 NE6       30.33R WCI  35
PASCAGOULA     SUNNY     39  31  72 NE5       30.33R
GULFPORT       SUNNY     41  29  62 NE6       30.33R
$$



USA.gov is the U.S. government's official web portal to all federal, state and local government web resources and services.